Location: College Park
(38.9810°N, 76.9370°W)
Time: 02:01:17
(UTC-04:00)

Hubble Space Telescope - Pass Details

Date: 07 January 2018
Orbit: 537 x 541 km, 28.5° (Epoch: 22 July)

Event Time Altitude Azimuth Distance (km) Brightness Sun altitude
Exits shadow 06:16:08 - 235° (SW) 1,954 3.3 -13.4°
Reaches altitude 10° 06:16:45 10° 229° (SW) 1,786 3.1 -13.3°
Maximum altitude 06:19:32 18° 187° (S) 1,370 3.0 -12.8°
Drops below altitude 10° 06:22:19 10° 144° (SE) 1,783 4.3 -12.3°
Sets 06:25:08 0° 125° (SE) 2,672 6.0 -11.8°
